Historique des stations

Station météo de Autry-Issards

Altitude de la station : 262 m







Données météorologiques pour le 17/01/2021
Date
Heure
Températures Humidité Point de rosée Vitesse
du vent
Direction Rafales Windchill Pression Pluviométrie
Cumul
Date
Heure
Températures Humidité Point de rosée Vitesse
du vent
Direction Rafales Windchill Pression Pluviométrie
Cumul
17/01/2021 12:295.8 °C91 %4.4 °C----992 hPa-
17/01/2021 12:145.5 °C93 %4.4 °C----992 hPa-
17/01/2021 11:595.3 °C93 %4.4 °C----992 hPa-
17/01/2021 11:445.2 °C93 %4.4 °C----992 hPa-
17/01/2021 11:295.2 °C94 %4.4 °C----992 hPa-
17/01/2021 11:144.9 °C93 %3.9 °C----991 hPa-
17/01/2021 10:595.1 °C94 %4.4 °C----991 hPa-
17/01/2021 10:445.1 °C93 %3.9 °C----991 hPa-
17/01/2021 10:305.2 °C94 %4.4 °C16 km/hNO21 km/h1.7 991 hPa-
17/01/2021 10:145.1 °C94 %4.4 °C----991 hPa-
17/01/2021 09:595.1 °C94 %4.4 °C----990 hPa-
17/01/2021 09:445.0 °C94 %3.9 °C----990 hPa-
17/01/2021 09:294.9 °C94 %3.9 °C----990 hPa-
17/01/2021 09:144.8 °C94 %3.9 °C----990 hPa-
17/01/2021 08:594.8 °C94 %3.9 °C----990 hPa-
17/01/2021 08:444.8 °C94 %3.9 °C----989 hPa-
17/01/2021 08:294.8 °C95 %3.9 °C----989 hPa-
17/01/2021 08:144.9 °C95 %4.4 °C----989 hPa-
17/01/2021 07:595.1 °C95 %4.4 °C----989 hPa-
17/01/2021 07:455.2 °C95 %4.4 °C----989 hPa-
17/01/2021 07:295.3 °C95 %4.4 °C----989 hPa-
17/01/2021 07:145.3 °C95 %4.4 °C----989 hPa-
17/01/2021 06:595.2 °C95 %4.4 °C----989 hPa-
17/01/2021 06:445.2 °C95 %4.4 °C----988 hPa-
17/01/2021 06:295.2 °C95 %4.4 °C----988 hPa-
17/01/2021 06:145.2 °C95 %4.4 °C----988 hPa-
17/01/2021 05:595.3 °C95 %4.4 °C----988 hPa-
17/01/2021 05:445.3 °C95 %4.4 °C----988 hPa-
17/01/2021 05:295.3 °C95 %4.4 °C----988 hPa-
17/01/2021 05:145.2 °C95 %4.4 °C----988 hPa-
17/01/2021 05:005.2 °C96 %4.4 °C----988 hPa-
17/01/2021 04:445.1 °C96 %4.4 °C----988 hPa-
17/01/2021 04:295.1 °C95 %4.4 °C----988 hPa-
17/01/2021 04:145.1 °C95 %4.4 °C----988 hPa-
17/01/2021 03:595.1 °C96 %4.4 °C----988 hPa-
17/01/2021 03:445.1 °C95 %4.4 °C----988 hPa-
17/01/2021 03:295.1 °C96 %4.4 °C----988 hPa-
17/01/2021 03:145.1 °C95 %4.4 °C----988 hPa-
17/01/2021 02:595.0 °C96 %4.4 °C----988 hPa-
17/01/2021 02:444.8 °C96 %4.4 °C----988 hPa-
17/01/2021 02:294.1 °C96 %3.3 °C----988 hPa-
17/01/2021 02:143.7 °C95 %2.8 °C----988 hPa-
17/01/2021 01:594.2 °C95 %3.3 °C----988 hPa-
17/01/2021 01:444.3 °C95 %3.3 °C----987 hPa-
17/01/2021 01:294.2 °C96 %3.9 °C----987 hPa-
17/01/2021 01:143.9 °C95 %3.3 °C----988 hPa-
17/01/2021 00:593.7 °C95 %2.8 °C----988 hPa-
17/01/2021 00:443.6 °C95 %2.8 °C----988 hPa-
17/01/2021 00:303.7 °C95 %2.8 °C----988 hPa-
17/01/2021 00:143.7 °C95 %2.8 °C----988 hPa-


Minima :

Température : 3.6 °C
Humidité : 91 %
Point de rosée : 2.8 °C
Vent moyen : 16 km/h
Windchill : 1.7
Pression atm. : 987 hPa
Maxima :

Température : 5.8 °C
Humidité : 96 %
Point de rosée : 4.4 °C
Vent moyen : 16 km/h
Windchill : 1.7
Pression atm. : 992 hPa
Rafales max : 21 km/h
Cumul de pluie sur 24H : 0 mm

Autry-Issards est une commune du département Allier (03).
La station météorologique du réseau de l'association la plus proche de Autry-Issards est celle de Audes



Icône Facebook Association Météo Centre Icône Twitter Association Météo Centre Icône Chaîne Youtube Association Météo Centre Icône contact Association Météo Centre Icône Insta Association Météo Centre